Weather History for Lebanon, NH

Change the Weather History Date:

Wednesday, January 9, 2013

  Actual Average Record
Temperature  
Mean Temperature 24 °F -  
Max Temperature 43 °F 23 °F 55 °F (1937)
Min Temperature 6 °F 4 °F -22 °F (2004)
Degree Days  
Heating Degree Days 40    
Moisture  
Dew Point 16 °F    
Average Humidity 76    
Maximum Humidity 92    
Minimum Humidity 49    
Precipitation  
Precipitation 0.00 in - - ()
Sea Level Pressure  
Sea Level Pressure 30.22 in    
Wind  
Wind Speed 2 mph (WSW)    
Max Wind Speed 17 mph    
Max Gust Speed 29 mph    
Visibility 7 miles    
Events      
Averages and records for this station are not official NWS values.
T = Trace of Precipitation, MM = Missing Value Source: NWS Daily Summary

Daily Weather History Graph

Daily Weather History Graph

Search for Another Location

Airport:

Trip Planner

Search our weather history database for the weather conditions in past years. The results will help you decide how hot, cold, wet, or windy it might be!

Date:

Astronomy

Jan. 09, 2013 Rise Set
Actual Time 7:21 AM EST 4:31 PM EST
Civil Twilight 6:49 AM EST 5:03 PM EST
Nautical Twilight 6:13 AM EST 5:39 PM EST
Astronomical Twilight 5:39 AM EST 6:14 PM EST
Moon 4:58 AM EST (1/9) 2:29 PM EST (1/9)
Length of Visible Light 10h 14m
Length of Day
9h 09m
Waning Crescent, 6% of the Moon is Illuminated
Jan 9
Waning Crescent
Jan 11
New
Jan 18
First Quarter
Jan 26
Full
Feb 3
Last Quarter

Hourly Weather History & Observations

Time (EST) Temp. Windchill Dew Point Humidity Pressure Visibility Wind Dir Wind Speed Gust Speed Precip Events Conditions
12:53 AM 17.1 °F - 12.9 °F 84% 30.39 in 8.0 mi Calm Calm - N/A   Clear
1:53 AM 15.1 °F - 10.9 °F 84% 30.40 in 7.0 mi Calm Calm - N/A   Clear
2:53 AM 12.0 °F - 8.1 °F 84% 30.39 in 7.0 mi Calm Calm - N/A   Clear
3:53 AM 10.9 °F - 6.1 °F 81% 30.38 in 7.0 mi Calm Calm - N/A   Clear
4:53 AM 9.0 °F - 3.9 °F 80% 30.38 in 6.0 mi Calm Calm - N/A   Haze
5:53 AM 9.0 °F - 3.9 °F 80% 30.40 in 7.0 mi Calm Calm - N/A   Clear
6:53 AM 8.1 °F - 3.9 °F 83% 30.41 in 8.0 mi Calm Calm - N/A   Clear
7:00 AM 8.6 °F - 3.2 °F 79% 30.36 in 3.0 mi Calm Calm - N/A   Haze
7:53 AM 6.1 °F - 3.0 °F 87% 30.40 in 6.0 mi Calm Calm - N/A   Clear
8:53 AM 9.0 °F - 6.1 °F 88% 30.41 in 6.0 mi Calm Calm - N/A   Clear
9:53 AM 16.0 °F - 12.9 °F 88% 30.36 in 5.0 mi Calm Calm - N/A   Clear
10:53 AM 19.9 °F - 18.0 °F 92% 30.31 in 6.0 mi Calm Calm - N/A   Clear
11:53 AM 21.9 °F - 19.0 °F 89% 30.23 in 5.0 mi Calm Calm - N/A   Clear
12:53 PM 25.0 °F - 19.0 °F 78% 30.19 in 7.0 mi Calm Calm - N/A   Clear
1:53 PM 28.0 °F - 19.9 °F 72% 30.13 in 5.0 mi Calm Calm - N/A   Haze
2:53 PM 28.9 °F - 21.9 °F 75% 30.07 in 5.0 mi Calm Calm - N/A   Haze
3:53 PM 28.9 °F - 21.9 °F 75% 30.03 in 6.0 mi Calm Calm - N/A   Haze
5:53 PM 37.0 °F 31.0 °F 25.0 °F 62% 29.99 in 10.0 mi SW 8.1 mph - N/A   Mostly Cloudy
6:53 PM 34.0 °F 27.2 °F 25.0 °F 70% 29.97 in 9.0 mi SSW 8.1 mph - N/A   Mostly Cloudy
7:53 PM 28.9 °F - 23.0 °F 78% 29.98 in 8.0 mi Calm Calm - N/A   Partly Cloudy
8:53 PM 42.1 °F 35.7 °F 27.0 °F 55% 29.98 in 10.0 mi West 11.5 mph 25.3 mph N/A   Overcast
9:53 PM 43.0 °F 35.1 °F 27.0 °F 53% 30.00 in 10.0 mi West 17.3 mph 28.8 mph N/A   Overcast
10:53 PM 42.1 °F 34.9 °F 24.1 °F 49% 30.00 in 10.0 mi West 13.8 mph 19.6 mph N/A   Overcast
11:53 PM 41.0 °F 34.3 °F 27.0 °F 57% 30.01 in 10.0 mi West 11.5 mph 21.9 mph N/A   Overcast